This is the latest recevied weather packets stored in our database for station/object GUNLAK-WX. If no packets are shown the sender has not sent any weather packets the latest 10 day(s).
| Time | Temp. | Humidity | Pressure | Rain* | Wind** | Luminosity | Snow |
|---|---|---|---|---|---|---|---|
| 1777767374 | 6.67° C | 48% | 990.1 hPa | 0 mm | - | - | - |
| 1777766509 | 7.22° C | 48% | 990.1 hPa | 0 mm | - | - | - |
| 1777765576 | 7.78° C | 38% | 990.1 hPa | 0 mm | - | - | - |
| 1777764687 | 7.78° C | 39% | 990.1 hPa | 0 mm | - | - | - |
| 1777763775 | 7.78° C | 39% | 990.1 hPa | 0 mm | - | - | - |
| 1777762902 | 8.33° C | 39% | 990.1 hPa | 0 mm | - | - | - |
| 1777761975 | 8.33° C | 39% | 990.4 hPa | 0 mm | - | - | - |
| 1777761093 | 8.33° C | 38% | 991.2 hPa | 0 mm | - | - | - |
| 1777760175 | 8.33° C | 38% | 991.2 hPa | 0 mm | - | - | - |
| 1777759302 | 8.33° C | 38% | 991.2 hPa | 0 mm | - | - | - |
| 1777758375 | 8.33° C | 40% | 991.2 hPa | 0 mm | - | - | - |
| 1777757493 | 8.89° C | 41% | 990.8 hPa | 0 mm | - | - | - |
| 1777756575 | 8.89° C | 41% | 990.8 hPa | 0 mm | - | - | - |
| 1777755705 | 8.89° C | 41% | 990.8 hPa | 0 mm | - | - | - |
| 1777754775 | 8.89° C | 37% | 991.3 hPa | 0 mm | - | - | - |
| 1777753893 | 8.89° C | 37% | 991.8 hPa | 0 mm | - | - | - |
| 1777752975 | 8.33° C | 37% | 991.7 hPa | 0 mm | - | - | - |
| 1777752102 | 8.33° C | 37% | 991.7 hPa | 0 mm | - | - | - |
| 1777751175 | 8.33° C | 38% | 991.9 hPa | 0 mm | - | - | - |
| 1777750288 | 8.33° C | 38% | 991.9 hPa | 0 mm | - | - | - |
| 1777749376 | 8.89° C | 38% | 991.9 hPa | 0 mm | - | - | - |
| 1777748503 | 8.33° C | 38% | 991.9 hPa | 0 mm | - | - | - |
| 1777746694 | 7.78° C | 45% | 991.8 hPa | 0 mm | - | - | - |
| 1777745774 | 8.33° C | 45% | 991.8 hPa | 0 mm | - | - | - |
| 1777744909 | 7.78° C | 45% | 991.8 hPa | 0 mm | - | - | - |
* Rain latest hour (hover to see other rain measurements)
** Current wind speed in m/s (hover to see current wind gust speed)